Location: Stanley
(44.2150°N, 114.9367°W)
Time: 06:56:00
(UTC+00:00)

Tiangong - Visible Passes

Search period start: 09 December 2022 00:00
Search period end: 19 December 2022 00:00
Orbit: 386 x 392 km, 41.5° (Epoch: 08 December)

Date Brightness Start Highest point End Pass type
(mag) Time Alt. Az. Time Alt. Az. Time Alt. Az.
09 Dec -1.1 01:02:47 10° W 01:05:49 42° S 01:08:50 10° ESE visible
09 Dec 1.0 02:40:11 10° WSW 02:41:09 14° SW 02:41:09 14° SW visible
10 Dec 0.0 01:41:37 10° WSW 01:44:14 23° SSW 01:46:05 15° SSE visible
11 Dec -0.4 00:43:12 10° W 00:46:05 32° SSW 00:48:58 10° SE visible
12 Dec 0.8 01:22:22 10° WSW 01:24:20 15° SSW 01:26:17 10° S visible
